CDT,Max TemperatureF,Mean TemperatureF,Min TemperatureF,Max Dew PointF,MeanDew PointF,Min DewpointF,Max Humidity, Mean Humidity, Min Humidity, Max Sea Level PressureIn, Mean Sea Level PressureIn, Min Sea Level PressureIn, Max VisibilityMiles, Mean VisibilityMiles, Min VisibilityMiles, Max Wind SpeedMPH, Mean Wind SpeedMPH, Max Gust SpeedMPH,PrecipitationIn, CloudCover, Events, WindDirDegrees
2013-8-1,86,78,69,72,62,57,100,57,37,30.14,30.08,30.01,10,10,0,6,2,,0.00,1,Fog,160
2013-8-2,78,73,68,73,69,63,100,92,65,30.03,29.97,29.92,10,10,2,14,6,29,0.24,4,Rain-Thunderstorm,143
2013-8-3,80,78,75,77,74,70,100,85,70,30.14,30.05,29.93,10,9,3,14,5,,0.72,6,Rain-Thunderstorm,256
2013-8-4,71,70,69,72,69,68,100,97,88,30.20,30.13,30.07,10,9,2,9,4,,0.62,8,Rain-Thunderstorm,86
2013-8-5,82,80,77,81,77,75,100,88,79,30.10,29.98,29.87,10,7,2,13,5,,0.59,6,Rain-Thunderstorm,119
2013-8-6,82,80,78,81,77,73,100,88,74,29.95,29.90,29.85,10,9,1,13,6,23,2.08,6,Rain-Thunderstorm,132
2013-8-7,82,80,77,79,73,70,100,80,66,29.98,29.92,29.83,10,9,1,18,7,25,2.54,4,Rain-Thunderstorm,162
2013-8-8,80,78,77,79,75,72,100,89,74,30.03,29.96,29.92,10,9,4,8,2,,0.31,6,Rain-Thunderstorm,345
2013-8-9,71,70,69,72,67,59,100,86,64,30.10,30.04,29.99,10,7,1,9,2,18,0.85,7,Rain-Thunderstorm,36
2013-8-10,80,74,68,70,64,61,88,66,54,30.20,30.14,30.10,10,8,0,9,3,,0.00,4,Fog-Rain,22
2013-8-11,86,74,62,73,65,59,100,75,51,30.17,30.12,30.06,10,10,7,8,3,,0.00,2,,92
2013-8-12,80,76,69,77,70,63,100,80,54,30.06,30.02,29.97,10,8,1,10,4,17,0.00,4,Rain-Thunderstorm,248
2013-8-13,77,70,62,70,60,57,100,64,50,30.13,30.07,30.02,10,9,0,9,2,,0.00,1,Fog,13
2013-8-14,73,66,59,64,54,48,100,67,43,30.22,30.17,30.13,10,10,7,9,4,,0.00,1,,66
2013-8-15,73,63,53,55,53,50,94,72,47,30.18,30.14,30.07,10,10,10,9,4,,0.00,1,,98
2013-8-16,71,64,57,59,56,54,94,74,53,30.17,30.14,30.10,10,10,10,7,1,,0.00,3,,54
2013-8-17,77,68,59,61,58,55,100,74,50,30.21,30.16,30.12,10,10,10,8,2,,0.00,2,,29
2013-8-18,80,70,59,64,61,57,100,76,54,30.20,30.15,30.10,10,9,0,8,1,,0.00,1,,67
2013-8-19,82,71,60,68,63,59,100,76,51,30.16,30.11,30.05,10,9,2,6,2,,0.00,2,,140
2013-8-20,86,73,60,68,64,61,100,72,45,30.13,30.09,30.06,10,10,4,9,5,,0.00,1,,151
2013-8-21,87,76,64,70,65,63,94,71,43,30.16,30.11,30.07,10,10,7,9,5,,0.00,1,,174
2013-8-22,87,78,68,72,67,64,89,70,46,30.15,30.11,30.06,10,10,10,8,4,,0.00,0,,178
2013-8-23,89,78,68,72,69,66,94,75,46,30.13,30.10,30.06,10,10,4,6,3,,0.00,1,,116
2013-8-24,89,78,68,72,67,61,100,73,40,30.21,30.17,30.10,10,8,2,10,5,,0.00,0,,119
2013-8-25,89,76,64,72,67,63,100,71,40,30.27,30.22,30.18,10,10,3,9,6,,0.00,1,,132
2013-8-26,91,81,71,72,70,66,94,71,46,30.24,30.18,30.12,10,10,10,10,6,,0.00,1,,193
2013-8-27,89,78,68,70,67,63,100,66,40,30.14,30.10,30.05,10,10,7,10,5,,0.00,1,,207
2013-8-28,89,78,66,72,68,64,94,70,46,30.10,30.07,30.05,10,10,10,10,4,,0.00,2,,232
2013-8-29,91,80,68,75,70,66,100,72,49,30.10,30.06,30.01,10,10,7,6,2,,0.00,1,,198
2013-8-30,95,84,73,72,70,66,94,62,39,30.02,29.97,29.90,10,10,10,12,5,16,0.00,1,,201
2013-8-31,96,86,77,73,70,66,83,62,37,29.92,29.87,29.82,10,10,10,12,6,17,0.00,0,,218